User: anonymous   Login
Location: Hains Lake
(37.8540°N, 99.8578°W)
Time: 04:54:13
(UTC+00:00)
Language:

Tiros 1 - Orbit

View from above orbital plane
View from above orbital plane
View from above satellite
View from above satellite

Ground track
Ground track

The orbit data is extracted from the following two-line orbital elements,

1    29U 60002B   21103.01087705 -.00000086  00000-0  18244-4 0  9992
2    29  48.3806 334.8537 0023648  73.6921 286.6589 14.74419049262867
Epoch (UTC): 13 April 2021 00:15:39
Eccentricity: 0.0023648
inclination: 48.3806°
perigee height: 630 km
apogee height: 663 km
right ascension of ascending node: 334.8537°
argument of perigee: 73.6921°
revolutions per day: 14.74419049
mean anomaly at epoch: 286.6589°
orbit number at epoch: 26286

The dashed part of the orbit path shows where the satellite is in the earth's shadow,  

DLR